Year,Month,Day,Hour,Minute,Value (Times are PST for temperature in C)
2012,06,06,00,00,7.40
2012,06,06,00,01,7.40
2012,06,06,00,02,7.40
2012,06,06,00,03,7.40
2012,06,06,00,04,7.40
2012,06,06,00,05,7.30
2012,06,06,00,06,7.30
2012,06,06,00,07,7.30
2012,06,06,00,08,7.30
2012,06,06,00,09,7.30
2012,06,06,00,10,7.30
2012,06,06,00,11,7.30
2012,06,06,00,12,7.30
2012,06,06,00,13,7.30
2012,06,06,00,14,7.30
2012,06,06,00,15,7.30
2012,06,06,00,16,7.30
2012,06,06,00,17,7.30
2012,06,06,00,18,7.30
2012,06,06,00,19,7.30
2012,06,06,00,20,7.30
2012,06,06,00,21,7.30
2012,06,06,00,22,7.30
2012,06,06,00,23,7.30
2012,06,06,00,24,7.30
2012,06,06,00,25,7.30
2012,06,06,00,26,7.30
2012,06,06,00,27,7.30
2012,06,06,00,28,7.30
2012,06,06,00,29,7.30
2012,06,06,00,30,7.30
2012,06,06,00,31,7.30
2012,06,06,00,32,7.20
2012,06,06,00,33,7.20
2012,06,06,00,34,7.20
2012,06,06,00,35,7.20
2012,06,06,00,36,7.20
2012,06,06,00,37,7.20
2012,06,06,00,38,7.20
2012,06,06,00,39,7.20
2012,06,06,00,40,7.20
2012,06,06,00,41,7.20
2012,06,06,00,42,7.20
2012,06,06,00,43,7.20
2012,06,06,00,44,7.20
2012,06,06,00,45,7.30
2012,06,06,00,46,7.30
2012,06,06,00,47,7.30
2012,06,06,00,48,7.30
2012,06,06,00,49,7.30
2012,06,06,00,50,7.30
2012,06,06,00,51,7.30
2012,06,06,00,52,7.30
2012,06,06,00,53,7.30
2012,06,06,00,54,7.30
2012,06,06,00,55,7.30
2012,06,06,00,56,7.30
2012,06,06,00,57,7.30
2012,06,06,00,58,7.30
2012,06,06,00,59,7.30
2012,06,06,01,00,7.20
2012,06,06,01,01,7.20
2012,06,06,01,02,7.20
2012,06,06,01,03,7.20
2012,06,06,01,04,7.20
2012,06,06,01,05,7.20
2012,06,06,01,06,7.20
2012,06,06,01,07,7.20
2012,06,06,01,08,7.20
2012,06,06,01,09,7.10
2012,06,06,01,10,7.10
2012,06,06,01,11,7.10
2012,06,06,01,12,7.10
2012,06,06,01,13,7.10
2012,06,06,01,14,7.10
2012,06,06,01,15,7.10
2012,06,06,01,16,7.10
2012,06,06,01,17,7.10
2012,06,06,01,18,7.10
2012,06,06,01,19,7.00
2012,06,06,01,20,7.10
2012,06,06,01,21,7.10
2012,06,06,01,22,7.10
2012,06,06,01,23,7.00
2012,06,06,01,24,7.00
2012,06,06,01,25,7.00
2012,06,06,01,26,6.90
2012,06,06,01,27,6.90
2012,06,06,01,28,6.90
2012,06,06,01,29,6.90
2012,06,06,01,30,6.90
2012,06,06,01,31,6.80
2012,06,06,01,32,6.80
2012,06,06,01,33,6.80
2012,06,06,01,34,6.80
2012,06,06,01,35,6.70
2012,06,06,01,36,6.70
2012,06,06,01,37,6.70
2012,06,06,01,38,6.70
2012,06,06,01,39,6.70
2012,06,06,01,40,6.60
2012,06,06,01,41,6.60
2012,06,06,01,42,6.60
2012,06,06,01,43,6.70
2012,06,06,01,44,6.70
2012,06,06,01,45,6.70
2012,06,06,01,46,6.80
2012,06,06,01,47,6.80
2012,06,06,01,48,6.80
2012,06,06,01,49,6.80
2012,06,06,01,50,6.80
2012,06,06,01,51,6.80
2012,06,06,01,52,6.80
2012,06,06,01,53,6.80
2012,06,06,01,54,6.80
2012,06,06,01,55,6.80
2012,06,06,01,56,6.80
2012,06,06,01,57,6.90
2012,06,06,01,58,6.90
2012,06,06,01,59,6.90
2012,06,06,02,00,6.90
2012,06,06,02,01,6.90
2012,06,06,02,02,6.90
2012,06,06,02,03,6.90
2012,06,06,02,04,6.90
2012,06,06,02,05,6.80
2012,06,06,02,06,6.80
2012,06,06,02,07,6.80
2012,06,06,02,08,6.80
2012,06,06,02,09,6.90
2012,06,06,02,10,6.90
2012,06,06,02,11,6.90
2012,06,06,02,12,6.90
2012,06,06,02,13,7.00
2012,06,06,02,14,7.00
2012,06,06,02,15,7.00
2012,06,06,02,16,7.00
2012,06,06,02,17,7.10
2012,06,06,02,18,7.10
2012,06,06,02,19,7.10
2012,06,06,02,20,7.10
2012,06,06,02,21,7.10
2012,06,06,02,22,7.20
2012,06,06,02,23,7.20
2012,06,06,02,24,7.20
2012,06,06,02,25,7.20
2012,06,06,02,26,7.20
2012,06,06,02,27,7.20
2012,06,06,02,28,7.20
2012,06,06,02,29,7.30
2012,06,06,02,30,7.30
2012,06,06,02,31,7.30
2012,06,06,02,32,7.30
2012,06,06,02,33,7.30
2012,06,06,02,34,7.30
2012,06,06,02,35,7.30
2012,06,06,02,36,7.30
2012,06,06,02,37,7.30
2012,06,06,02,38,7.30
2012,06,06,02,39,7.20
2012,06,06,02,40,7.20
2012,06,06,02,41,7.20
2012,06,06,02,42,7.20
2012,06,06,02,43,7.20
2012,06,06,02,44,7.20
2012,06,06,02,45,7.20
2012,06,06,02,46,7.20
2012,06,06,02,47,7.10
2012,06,06,02,48,7.10
2012,06,06,02,49,7.10
2012,06,06,02,50,7.10
2012,06,06,02,51,7.10
2012,06,06,02,52,7.10
2012,06,06,02,53,7.00
2012,06,06,02,54,7.00
2012,06,06,02,55,7.00
2012,06,06,02,56,7.00
2012,06,06,02,57,7.00
2012,06,06,02,58,7.00
2012,06,06,02,59,7.00
2012,06,06,03,00,6.90
2012,06,06,03,01,6.90
2012,06,06,03,02,6.90
2012,06,06,03,03,6.90
2012,06,06,03,04,6.90
2012,06,06,03,05,6.90
2012,06,06,03,06,6.90
2012,06,06,03,07,6.90
2012,06,06,03,08,6.90
2012,06,06,03,09,6.90
2012,06,06,03,10,6.90
2012,06,06,03,11,6.90
2012,06,06,03,12,6.90
2012,06,06,03,13,6.80
2012,06,06,03,14,6.80
2012,06,06,03,15,6.80
2012,06,06,03,16,6.80
2012,06,06,03,17,6.80
2012,06,06,03,18,6.80
2012,06,06,03,19,6.80
2012,06,06,03,20,6.70
2012,06,06,03,21,6.70
2012,06,06,03,22,6.70
2012,06,06,03,23,6.70
2012,06,06,03,24,6.70
2012,06,06,03,25,6.70
2012,06,06,03,26,6.60
2012,06,06,03,27,6.60
2012,06,06,03,28,6.60
2012,06,06,03,29,6.60
2012,06,06,03,30,6.60
2012,06,06,03,31,6.60
2012,06,06,03,32,6.50
2012,06,06,03,33,6.50
2012,06,06,03,34,6.50
2012,06,06,03,35,6.50
2012,06,06,03,36,6.40
2012,06,06,03,37,6.40
2012,06,06,03,38,6.40
2012,06,06,03,39,6.40
2012,06,06,03,40,6.40
2012,06,06,03,41,6.30
2012,06,06,03,42,6.30
2012,06,06,03,43,6.30
2012,06,06,03,44,6.30
2012,06,06,03,45,6.30
2012,06,06,03,46,6.20
2012,06,06,03,47,6.20
2012,06,06,03,48,6.20
2012,06,06,03,49,6.20
2012,06,06,03,50,6.20
2012,06,06,03,51,6.20
2012,06,06,03,52,6.20
2012,06,06,03,53,6.20
2012,06,06,03,54,6.20
2012,06,06,03,55,6.20
2012,06,06,03,56,6.20
2012,06,06,03,57,6.20
2012,06,06,03,58,6.10
2012,06,06,03,59,6.10
2012,06,06,04,00,6.10
2012,06,06,04,01,6.10
2012,06,06,04,02,6.10
2012,06,06,04,03,6.10
2012,06,06,04,04,6.10
2012,06,06,04,05,6.10
2012,06,06,04,06,6.10
2012,06,06,04,07,6.10
2012,06,06,04,08,6.10
2012,06,06,04,09,6.10
2012,06,06,04,10,6.10
2012,06,06,04,11,6.10
2012,06,06,04,12,6.10
2012,06,06,04,13,6.10
2012,06,06,04,14,6.10
2012,06,06,04,15,6.10
2012,06,06,04,16,6.10
2012,06,06,04,17,6.10
2012,06,06,04,18,6.10
2012,06,06,04,19,6.10
2012,06,06,04,20,6.10
2012,06,06,04,21,6.10
2012,06,06,04,22,6.20
2012,06,06,04,23,6.20
2012,06,06,04,24,6.20
2012,06,06,04,25,6.20
2012,06,06,04,26,6.20
2012,06,06,04,27,6.30
2012,06,06,04,28,6.30
2012,06,06,04,29,6.30
2012,06,06,04,30,6.30
2012,06,06,04,31,6.30
2012,06,06,04,32,6.30
2012,06,06,04,33,6.30
2012,06,06,04,34,6.30
2012,06,06,04,35,6.40
2012,06,06,04,36,6.40
2012,06,06,04,37,6.40
2012,06,06,04,38,6.40
2012,06,06,04,39,6.40
2012,06,06,04,40,6.40
2012,06,06,04,41,6.40
2012,06,06,04,42,6.40
2012,06,06,04,43,6.50
2012,06,06,04,44,6.50
2012,06,06,04,45,6.50
2012,06,06,04,46,6.50
2012,06,06,04,47,6.50
2012,06,06,04,48,6.50
2012,06,06,04,49,6.50
2012,06,06,04,50,6.50
2012,06,06,04,51,6.50
2012,06,06,04,52,6.50
2012,06,06,04,53,6.60
2012,06,06,04,54,6.60
2012,06,06,04,55,6.60
2012,06,06,04,56,6.60
2012,06,06,04,57,6.60
2012,06,06,04,58,6.60
2012,06,06,04,59,6.60
2012,06,06,05,00,6.60
2012,06,06,05,01,6.60
2012,06,06,05,02,6.70
2012,06,06,05,03,6.70
2012,06,06,05,04,6.70
2012,06,06,05,05,6.70
2012,06,06,05,06,6.70
2012,06,06,05,07,6.80
2012,06,06,05,08,6.80
2012,06,06,05,09,6.80
2012,06,06,05,10,6.80
2012,06,06,05,11,6.80
2012,06,06,05,12,6.80
2012,06,06,05,13,6.80
2012,06,06,05,14,6.80
2012,06,06,05,15,6.80
2012,06,06,05,16,6.80
2012,06,06,05,17,6.90
2012,06,06,05,18,6.90
2012,06,06,05,19,6.90
2012,06,06,05,20,6.90
2012,06,06,05,21,7.00
2012,06,06,05,22,7.00
2012,06,06,05,23,7.00
2012,06,06,05,24,7.10
2012,06,06,05,25,7.10
2012,06,06,05,26,7.10
2012,06,06,05,27,7.10
2012,06,06,05,28,7.20
2012,06,06,05,29,7.30
2012,06,06,05,30,7.30
2012,06,06,05,31,7.40
2012,06,06,05,32,7.50
2012,06,06,05,33,7.60
2012,06,06,05,34,7.70
2012,06,06,05,35,7.80
2012,06,06,05,36,7.80
2012,06,06,05,37,7.90
2012,06,06,05,38,8.00
2012,06,06,05,39,8.10
2012,06,06,05,40,8.10
2012,06,06,05,41,8.10
2012,06,06,05,42,8.20
2012,06,06,05,43,8.20
2012,06,06,05,44,8.30
2012,06,06,05,45,8.30
2012,06,06,05,46,8.30
2012,06,06,05,47,8.30
2012,06,06,05,48,8.40
2012,06,06,05,49,8.40
2012,06,06,05,50,8.40
2012,06,06,05,51,8.40
2012,06,06,05,52,8.40
2012,06,06,05,53,8.50
2012,06,06,05,54,8.50
2012,06,06,05,55,8.50
2012,06,06,05,56,8.50
2012,06,06,05,57,8.50
2012,06,06,05,58,8.50
2012,06,06,05,59,8.60
2012,06,06,06,00,8.60
2012,06,06,06,01,8.60
2012,06,06,06,02,8.60
2012,06,06,06,03,8.60
2012,06,06,06,04,8.60
2012,06,06,06,05,8.60
2012,06,06,06,06,8.60
2012,06,06,06,07,8.60
2012,06,06,06,08,8.60
2012,06,06,06,09,8.60
2012,06,06,06,10,8.60
2012,06,06,06,11,8.60
2012,06,06,06,12,8.60
2012,06,06,06,13,8.60
2012,06,06,06,14,8.60
2012,06,06,06,15,8.70
2012,06,06,06,16,8.70
2012,06,06,06,17,8.70
2012,06,06,06,18,8.70
2012,06,06,06,19,8.70
2012,06,06,06,20,8.70
2012,06,06,06,21,8.70
2012,06,06,06,22,8.70
2012,06,06,06,23,8.70
2012,06,06,06,24,8.70
2012,06,06,06,25,8.70
2012,06,06,06,26,8.70
2012,06,06,06,27,8.80
2012,06,06,06,28,8.80
2012,06,06,06,29,8.80
2012,06,06,06,30,8.80
2012,06,06,06,31,8.80
2012,06,06,06,32,8.80
2012,06,06,06,33,8.80
2012,06,06,06,34,8.80
2012,06,06,06,35,8.80
2012,06,06,06,36,8.80
2012,06,06,06,37,8.80
2012,06,06,06,38,8.80
2012,06,06,06,39,8.70
2012,06,06,06,40,8.70
2012,06,06,06,41,8.70
2012,06,06,06,42,8.70
2012,06,06,06,43,8.70
2012,06,06,06,44,8.70
2012,06,06,06,45,8.70
2012,06,06,06,46,8.60
2012,06,06,06,47,8.60
2012,06,06,06,48,8.60
2012,06,06,06,49,8.60
2012,06,06,06,50,8.60
2012,06,06,06,51,8.60
2012,06,06,06,52,8.60
2012,06,06,06,53,8.60
2012,06,06,06,54,8.60
2012,06,06,06,55,8.50
2012,06,06,06,56,8.50
2012,06,06,06,57,8.50
2012,06,06,06,58,8.50
2012,06,06,06,59,8.50
2012,06,06,07,00,8.40
2012,06,06,07,01,8.40
2012,06,06,07,02,8.40
2012,06,06,07,03,8.50
2012,06,06,07,04,8.50
2012,06,06,07,05,8.50
2012,06,06,07,06,8.60
2012,06,06,07,07,8.70
2012,06,06,07,08,8.70
2012,06,06,07,09,8.80
2012,06,06,07,10,8.80
2012,06,06,07,11,8.80
2012,06,06,07,12,8.90
2012,06,06,07,13,8.90
2012,06,06,07,14,9.00
2012,06,06,07,15,9.10
2012,06,06,07,16,9.10
2012,06,06,07,17,9.10
2012,06,06,07,18,9.20
2012,06,06,07,19,9.30
2012,06,06,07,20,9.30
2012,06,06,07,21,9.30
2012,06,06,07,22,9.40
2012,06,06,07,23,9.40
2012,06,06,07,24,9.40
2012,06,06,07,25,9.40
2012,06,06,07,26,9.40
2012,06,06,07,27,9.40
2012,06,06,07,28,9.50
2012,06,06,07,29,9.50
2012,06,06,07,30,9.60
2012,06,06,07,31,9.60
2012,06,06,07,32,9.70
2012,06,06,07,33,9.70
2012,06,06,07,34,9.70
2012,06,06,07,35,9.80
2012,06,06,07,36,9.80
2012,06,06,07,37,9.80
2012,06,06,07,38,9.80
2012,06,06,07,39,9.80
2012,06,06,07,40,9.80
2012,06,06,07,41,9.90
2012,06,06,07,42,9.90
2012,06,06,07,43,10.00
2012,06,06,07,44,10.00
2012,06,06,07,45,10.10
2012,06,06,07,46,10.10
2012,06,06,07,47,10.20
2012,06,06,07,48,10.20
2012,06,06,07,49,10.20
2012,06,06,07,50,10.20
2012,06,06,07,51,10.20
2012,06,06,07,52,10.30
2012,06,06,07,53,10.30
2012,06,06,07,54,10.30
2012,06,06,07,55,10.30
2012,06,06,07,56,10.30
2012,06,06,07,57,10.40
2012,06,06,07,58,10.40
2012,06,06,07,59,10.40
2012,06,06,08,00,10.40
2012,06,06,08,01,10.40
2012,06,06,08,02,10.40
2012,06,06,08,03,10.40
2012,06,06,08,04,10.40
2012,06,06,08,05,10.40
2012,06,06,08,06,10.40
2012,06,06,08,07,10.50
2012,06,06,08,08,10.40
2012,06,06,08,09,10.40
2012,06,06,08,10,10.50
2012,06,06,08,11,10.50
2012,06,06,08,12,10.50
2012,06,06,08,13,10.50
2012,06,06,08,14,10.40
2012,06,06,08,15,10.40
2012,06,06,08,16,10.40
2012,06,06,08,17,10.40
2012,06,06,08,18,10.40
2012,06,06,08,19,10.50
2012,06,06,08,20,10.50
2012,06,06,08,21,10.50
2012,06,06,08,22,10.50
2012,06,06,08,23,10.40
2012,06,06,08,24,10.40
2012,06,06,08,25,10.50
2012,06,06,08,26,10.50
2012,06,06,08,27,10.60
2012,06,06,08,28,10.50
2012,06,06,08,29,10.50
2012,06,06,08,30,10.40
2012,06,06,08,31,10.50
2012,06,06,08,32,10.50
2012,06,06,08,33,10.60
2012,06,06,08,34,10.70
2012,06,06,08,35,10.70
2012,06,06,08,36,10.70
2012,06,06,08,37,10.80
2012,06,06,08,38,10.70
2012,06,06,08,39,10.60
2012,06,06,08,40,10.60
2012,06,06,08,41,10.60
2012,06,06,08,42,10.60
2012,06,06,08,43,10.60
2012,06,06,08,44,10.60
2012,06,06,08,45,10.60
2012,06,06,08,46,10.70
2012,06,06,08,47,10.70
2012,06,06,08,48,10.70
2012,06,06,08,49,10.70
2012,06,06,08,50,10.70
2012,06,06,08,51,10.80
2012,06,06,08,52,10.80
2012,06,06,08,53,10.70
2012,06,06,08,54,10.70
2012,06,06,08,55,10.70
2012,06,06,08,56,10.80
2012,06,06,08,57,10.80
2012,06,06,08,58,10.80
2012,06,06,08,59,10.80
2012,06,06,09,00,10.80
2012,06,06,09,01,10.90
2012,06,06,09,02,10.90
2012,06,06,09,03,10.90
2012,06,06,09,04,10.90
2012,06,06,09,05,10.90
2012,06,06,09,06,10.90
2012,06,06,09,07,10.90
2012,06,06,09,08,11.00
2012,06,06,09,09,11.10
2012,06,06,09,10,11.10
2012,06,06,09,11,11.00
2012,06,06,09,12,11.00
2012,06,06,09,13,10.90
2012,06,06,09,14,10.90
2012,06,06,09,15,10.80
2012,06,06,09,16,10.80
2012,06,06,09,17,10.80
2012,06,06,09,18,10.70
2012,06,06,09,19,10.70
2012,06,06,09,20,10.60
2012,06,06,09,21,10.60
2012,06,06,09,22,10.70
2012,06,06,09,23,10.70
2012,06,06,09,24,10.70
2012,06,06,09,25,10.80
2012,06,06,09,26,10.90
2012,06,06,09,27,10.90
2012,06,06,09,28,11.00
2012,06,06,09,29,10.90
2012,06,06,09,30,10.90
2012,06,06,09,31,10.80
2012,06,06,09,32,10.80
2012,06,06,09,33,10.80
2012,06,06,09,34,10.80
2012,06,06,09,35,10.80
2012,06,06,09,36,10.80
2012,06,06,09,37,10.80
2012,06,06,09,38,10.80
2012,06,06,09,39,10.80
2012,06,06,09,40,10.70
2012,06,06,09,41,10.80
2012,06,06,09,42,10.80
2012,06,06,09,43,10.80
2012,06,06,09,44,10.80
2012,06,06,09,45,10.80
2012,06,06,09,46,10.80
2012,06,06,09,47,10.80
2012,06,06,09,48,10.70
2012,06,06,09,49,10.70
2012,06,06,09,50,10.70
2012,06,06,09,51,10.60
2012,06,06,09,52,10.60
2012,06,06,09,53,10.50
2012,06,06,09,54,10.60
2012,06,06,09,55,10.60
2012,06,06,09,56,10.60
2012,06,06,09,57,10.70
2012,06,06,09,58,10.70
2012,06,06,09,59,10.70
2012,06,06,10,00,10.70
2012,06,06,10,01,10.70
2012,06,06,10,02,10.70
2012,06,06,10,03,10.70
2012,06,06,10,04,10.70
2012,06,06,10,05,10.70
2012,06,06,10,06,10.80
2012,06,06,10,07,10.80
2012,06,06,10,08,10.80
2012,06,06,10,09,10.80
2012,06,06,10,10,10.90
2012,06,06,10,11,10.90
2012,06,06,10,12,10.90
2012,06,06,10,13,10.90
2012,06,06,10,14,10.90
2012,06,06,10,15,10.80
2012,06,06,10,16,10.80
2012,06,06,10,17,10.70
2012,06,06,10,18,10.70
2012,06,06,10,19,10.70
2012,06,06,10,20,10.60
2012,06,06,10,21,10.60
2012,06,06,10,22,10.50
2012,06,06,10,23,10.50
2012,06,06,10,24,10.40
2012,06,06,10,25,10.40
2012,06,06,10,26,10.40
2012,06,06,10,27,10.40
2012,06,06,10,28,10.30
2012,06,06,10,29,10.30
2012,06,06,10,30,10.30
2012,06,06,10,31,10.30
2012,06,06,10,32,10.30
2012,06,06,10,33,10.30
2012,06,06,10,34,10.40
2012,06,06,10,35,10.40
2012,06,06,10,36,10.40
2012,06,06,10,37,10.40
2012,06,06,10,38,10.40
2012,06,06,10,39,10.40
2012,06,06,10,40,10.30
2012,06,06,10,41,10.30
2012,06,06,10,42,10.30
2012,06,06,10,43,10.30
2012,06,06,10,44,10.30
2012,06,06,10,45,10.40
2012,06,06,10,46,10.40
2012,06,06,10,47,10.50
2012,06,06,10,48,10.50
2012,06,06,10,49,10.40
2012,06,06,10,50,10.40
2012,06,06,10,51,10.40
2012,06,06,10,52,10.30
2012,06,06,10,53,10.30
2012,06,06,10,54,10.30
2012,06,06,10,55,10.40
2012,06,06,10,56,10.40
2012,06,06,10,57,10.40
2012,06,06,10,58,10.40
2012,06,06,10,59,10.40
2012,06,06,11,00,10.40
2012,06,06,11,01,10.50
2012,06,06,11,02,10.50
2012,06,06,11,03,10.60
2012,06,06,11,04,10.60
2012,06,06,11,05,10.60
2012,06,06,11,06,10.60
2012,06,06,11,07,10.60
2012,06,06,11,08,10.60
2012,06,06,11,09,10.60
2012,06,06,11,10,10.60
2012,06,06,11,11,10.50
2012,06,06,11,12,10.50
2012,06,06,11,13,10.50
2012,06,06,11,14,10.40
2012,06,06,11,15,10.50
2012,06,06,11,16,10.50
2012,06,06,11,17,10.40
2012,06,06,11,18,10.40
2012,06,06,11,19,10.30
2012,06,06,11,20,10.30
2012,06,06,11,21,10.20
2012,06,06,11,22,10.20
2012,06,06,11,23,10.20
2012,06,06,11,24,10.20
2012,06,06,11,25,10.10
2012,06,06,11,26,10.10
2012,06,06,11,27,10.20
2012,06,06,11,28,10.10
2012,06,06,11,29,10.10
2012,06,06,11,30,10.10
2012,06,06,11,31,10.10
2012,06,06,11,32,10.10
2012,06,06,11,33,10.10
2012,06,06,11,34,10.20
2012,06,06,11,35,10.20
2012,06,06,11,36,10.20
2012,06,06,11,37,10.20
2012,06,06,11,38,10.20
2012,06,06,11,39,10.20
2012,06,06,11,40,10.20
2012,06,06,11,41,10.20
2012,06,06,11,42,10.20
2012,06,06,11,43,10.20
2012,06,06,11,44,10.20
2012,06,06,11,45,10.20
2012,06,06,11,46,10.30
2012,06,06,11,47,10.30
2012,06,06,11,48,10.40
2012,06,06,11,49,10.40
2012,06,06,11,50,10.30
2012,06,06,11,51,10.30
2012,06,06,11,52,10.40
2012,06,06,11,53,10.40
2012,06,06,11,54,10.40
2012,06,06,11,55,10.50
2012,06,06,11,56,10.50
2012,06,06,11,57,10.50
2012,06,06,11,58,10.50
2012,06,06,11,59,10.50
2012,06,06,12,00,10.60
2012,06,06,12,01,10.60
2012,06,06,12,02,10.60
2012,06,06,12,03,10.70
2012,06,06,12,04,10.70
2012,06,06,12,05,10.70
2012,06,06,12,06,10.70
2012,06,06,12,07,10.80
2012,06,06,12,08,10.80
2012,06,06,12,09,10.80
2012,06,06,12,10,10.80
2012,06,06,12,11,10.80
2012,06,06,12,12,10.90
2012,06,06,12,13,10.90
2012,06,06,12,14,10.90
2012,06,06,12,15,10.80
2012,06,06,12,16,10.90
2012,06,06,12,17,10.90
2012,06,06,12,18,11.00
2012,06,06,12,19,11.00
2012,06,06,12,20,11.00
2012,06,06,12,21,11.10
2012,06,06,12,22,11.20
2012,06,06,12,23,11.20
2012,06,06,12,24,11.30
2012,06,06,12,25,11.30
2012,06,06,12,26,11.30
2012,06,06,12,27,11.30
2012,06,06,12,28,11.30
2012,06,06,12,29,11.40
2012,06,06,12,30,11.40
2012,06,06,12,31,11.40
2012,06,06,12,32,11.40
2012,06,06,12,33,11.30
2012,06,06,12,34,11.30
2012,06,06,12,35,11.40
2012,06,06,12,36,11.40
2012,06,06,12,37,11.40
2012,06,06,12,38,11.40
2012,06,06,12,39,11.40
2012,06,06,12,40,11.50
2012,06,06,12,41,11.60
2012,06,06,12,42,11.60
2012,06,06,12,43,11.70
2012,06,06,12,44,11.70
2012,06,06,12,45,11.60
2012,06,06,12,46,11.60
2012,06,06,12,47,11.60
2012,06,06,12,48,11.70
2012,06,06,12,49,11.80
2012,06,06,12,50,11.90
2012,06,06,12,51,11.90
2012,06,06,12,52,12.00
2012,06,06,12,53,12.00
2012,06,06,12,54,12.00
2012,06,06,12,55,11.90
2012,06,06,12,56,11.90
2012,06,06,12,57,11.80
2012,06,06,12,58,11.70
2012,06,06,12,59,11.70
2012,06,06,13,00,11.80
2012,06,06,13,01,11.80
2012,06,06,13,02,11.80
2012,06,06,13,03,11.80
2012,06,06,13,04,11.80
2012,06,06,13,05,11.90
2012,06,06,13,06,11.90
2012,06,06,13,07,11.90
2012,06,06,13,08,11.90
2012,06,06,13,09,11.90
2012,06,06,13,10,11.90
2012,06,06,13,11,11.80
2012,06,06,13,12,11.70
2012,06,06,13,13,11.70
2012,06,06,13,14,11.70
2012,06,06,13,15,11.80
2012,06,06,13,16,11.80
2012,06,06,13,17,11.80
2012,06,06,13,18,11.70
2012,06,06,13,19,11.70
2012,06,06,13,20,11.70
2012,06,06,13,21,11.70
2012,06,06,13,22,11.70
2012,06,06,13,23,11.70
2012,06,06,13,24,11.70
2012,06,06,13,25,11.70
2012,06,06,13,26,11.70
2012,06,06,13,27,11.80
2012,06,06,13,28,11.80
2012,06,06,13,29,11.80
2012,06,06,13,30,11.80
2012,06,06,13,31,11.80
2012,06,06,13,32,11.80
2012,06,06,13,33,11.80
2012,06,06,13,34,11.80
2012,06,06,13,35,11.80
2012,06,06,13,36,11.70
2012,06,06,13,37,11.70
2012,06,06,13,38,11.70
2012,06,06,13,39,11.70
2012,06,06,13,40,11.70
2012,06,06,13,41,11.60
2012,06,06,13,42,11.50
2012,06,06,13,43,11.50
2012,06,06,13,44,11.50
2012,06,06,13,45,11.50
2012,06,06,13,46,11.50
2012,06,06,13,47,11.40
2012,06,06,13,48,11.40
2012,06,06,13,49,11.40
2012,06,06,13,50,11.40
2012,06,06,13,51,11.40
2012,06,06,13,52,11.40
2012,06,06,13,53,11.40
2012,06,06,13,54,11.40
2012,06,06,13,55,11.40
2012,06,06,13,56,11.40
2012,06,06,13,57,11.40
2012,06,06,13,58,11.40
2012,06,06,13,59,11.40
2012,06,06,14,00,11.40
2012,06,06,14,01,11.30
2012,06,06,14,02,11.30
2012,06,06,14,03,11.30
2012,06,06,14,04,11.30
2012,06,06,14,05,11.40
2012,06,06,14,06,11.40
2012,06,06,14,07,11.40
2012,06,06,14,08,11.40
2012,06,06,14,09,11.40
2012,06,06,14,10,11.40
2012,06,06,14,11,11.40
2012,06,06,14,12,11.30
2012,06,06,14,13,11.30
2012,06,06,14,14,11.30
2012,06,06,14,15,11.30
2012,06,06,14,16,11.30
2012,06,06,14,17,11.20
2012,06,06,14,18,11.20
2012,06,06,14,19,11.20
2012,06,06,14,20,11.20
2012,06,06,14,21,11.10
2012,06,06,14,22,11.10
2012,06,06,14,23,11.00
2012,06,06,14,24,11.00
2012,06,06,14,25,11.00
2012,06,06,14,26,11.00
2012,06,06,14,27,10.90
2012,06,06,14,28,10.90
2012,06,06,14,29,10.90
2012,06,06,14,30,10.90
2012,06,06,14,31,10.90
2012,06,06,14,32,10.80
2012,06,06,14,33,10.90
2012,06,06,14,34,10.80
2012,06,06,14,35,10.80
2012,06,06,14,36,10.80
2012,06,06,14,37,10.80
2012,06,06,14,38,10.90
2012,06,06,14,39,10.90
2012,06,06,14,40,10.90
2012,06,06,14,41,10.80
2012,06,06,14,42,10.80
2012,06,06,14,43,10.80
2012,06,06,14,44,10.80
2012,06,06,14,45,10.80
2012,06,06,14,46,10.80
2012,06,06,14,47,10.80
2012,06,06,14,48,10.80
2012,06,06,14,49,10.80
2012,06,06,14,50,10.80
2012,06,06,14,51,10.80
2012,06,06,14,52,10.80
2012,06,06,14,53,10.80
2012,06,06,14,54,10.90
2012,06,06,14,55,10.90
2012,06,06,14,56,10.90
2012,06,06,14,57,10.80
2012,06,06,14,58,10.80
2012,06,06,14,59,10.80
2012,06,06,15,00,10.70
2012,06,06,15,01,10.70
2012,06,06,15,02,10.60
2012,06,06,15,03,10.60
2012,06,06,15,04,10.60
2012,06,06,15,05,10.50
2012,06,06,15,06,10.50
2012,06,06,15,07,10.50
2012,06,06,15,08,10.50
2012,06,06,15,09,10.50
2012,06,06,15,10,10.50
2012,06,06,15,11,10.60
2012,06,06,15,12,10.50
2012,06,06,15,13,10.50
2012,06,06,15,14,10.50
2012,06,06,15,15,10.50
2012,06,06,15,16,10.40
2012,06,06,15,17,10.40
2012,06,06,15,18,10.40
2012,06,06,15,19,10.40
2012,06,06,15,20,10.40
2012,06,06,15,21,10.30
2012,06,06,15,22,10.30
2012,06,06,15,23,10.20
2012,06,06,15,24,10.20
2012,06,06,15,25,10.20
2012,06,06,15,26,10.20
2012,06,06,15,27,10.10
2012,06,06,15,28,10.10
2012,06,06,15,29,10.10
2012,06,06,15,30,10.10
2012,06,06,15,31,10.10
2012,06,06,15,32,10.10
2012,06,06,15,33,10.10
2012,06,06,15,34,10.10
2012,06,06,15,35,10.10
2012,06,06,15,36,10.20
2012,06,06,15,37,10.20
2012,06,06,15,38,10.20
2012,06,06,15,39,10.20
2012,06,06,15,40,10.20
2012,06,06,15,41,10.20
2012,06,06,15,42,10.20
2012,06,06,15,43,10.20
2012,06,06,15,44,10.20
2012,06,06,15,45,10.20
2012,06,06,15,46,10.20
2012,06,06,15,47,10.20
2012,06,06,15,48,10.20
2012,06,06,15,49,10.20
2012,06,06,15,50,10.20
2012,06,06,15,51,10.20
2012,06,06,15,52,10.20
2012,06,06,15,53,10.20
2012,06,06,15,54,10.20
2012,06,06,15,55,10.20
2012,06,06,15,56,10.20
2012,06,06,15,57,10.20
2012,06,06,15,58,10.20
2012,06,06,15,59,10.20
2012,06,06,16,00,10.20
2012,06,06,16,01,10.20
2012,06,06,16,02,10.10
2012,06,06,16,03,10.10
2012,06,06,16,04,10.10
2012,06,06,16,05,10.10
2012,06,06,16,06,10.10
2012,06,06,16,07,10.10
2012,06,06,16,08,10.10
2012,06,06,16,09,10.10
2012,06,06,16,10,10.10
2012,06,06,16,11,10.10
2012,06,06,16,12,10.10
2012,06,06,16,13,10.10
2012,06,06,16,14,10.10
2012,06,06,16,15,10.00
2012,06,06,16,16,10.00
2012,06,06,16,17,10.00
2012,06,06,16,18,10.00
2012,06,06,16,19,10.00
2012,06,06,16,20,10.00
2012,06,06,16,21,9.90
2012,06,06,16,22,9.90
2012,06,06,16,23,9.90
2012,06,06,16,24,10.00
2012,06,06,16,25,9.90
2012,06,06,16,26,9.90
2012,06,06,16,27,9.90
2012,06,06,16,28,9.90
2012,06,06,16,29,9.90
2012,06,06,16,30,9.80
2012,06,06,16,31,9.80
2012,06,06,16,32,9.80
2012,06,06,16,33,9.80
2012,06,06,16,34,9.80
2012,06,06,16,35,9.80
2012,06,06,16,36,9.80
2012,06,06,16,37,9.80
2012,06,06,16,38,9.70
2012,06,06,16,39,9.70
2012,06,06,16,40,9.70
2012,06,06,16,41,9.70
2012,06,06,16,42,9.80
2012,06,06,16,43,9.80
2012,06,06,16,44,9.80
2012,06,06,16,45,9.80
2012,06,06,16,46,9.80
2012,06,06,16,47,9.80
2012,06,06,16,48,9.80
2012,06,06,16,49,9.80
2012,06,06,16,50,9.80
2012,06,06,16,51,9.80
2012,06,06,16,52,9.80
2012,06,06,16,53,9.80
2012,06,06,16,54,9.80
2012,06,06,16,55,9.80
2012,06,06,16,56,9.80
2012,06,06,16,57,9.80
2012,06,06,16,58,9.80
2012,06,06,16,59,9.80
2012,06,06,17,00,9.80
2012,06,06,17,01,9.80
2012,06,06,17,02,9.80
2012,06,06,17,03,9.80
2012,06,06,17,04,9.80
2012,06,06,17,05,9.80
2012,06,06,17,06,9.80
2012,06,06,17,07,9.80
2012,06,06,17,08,9.80
2012,06,06,17,09,9.80
2012,06,06,17,10,9.80
2012,06,06,17,11,9.80
2012,06,06,17,12,9.80
2012,06,06,17,13,9.80
2012,06,06,17,14,9.80
2012,06,06,17,15,9.80
2012,06,06,17,16,9.80
2012,06,06,17,17,9.80
2012,06,06,17,18,9.80
2012,06,06,17,19,9.80
2012,06,06,17,20,9.80
2012,06,06,17,21,9.80
2012,06,06,17,22,9.70
2012,06,06,17,23,9.70
2012,06,06,17,24,9.70
2012,06,06,17,25,9.70
2012,06,06,17,26,9.70
2012,06,06,17,27,9.70
2012,06,06,17,28,9.70
2012,06,06,17,29,9.60
2012,06,06,17,30,9.60
2012,06,06,17,31,9.50
2012,06,06,17,32,9.50
2012,06,06,17,33,9.50
2012,06,06,17,34,9.50
2012,06,06,17,35,9.50
2012,06,06,17,36,9.60
2012,06,06,17,37,9.60
2012,06,06,17,38,9.60
2012,06,06,17,39,9.60
2012,06,06,17,40,9.60
2012,06,06,17,41,9.60
2012,06,06,17,42,9.60
2012,06,06,17,43,9.60